Location: Blankensee
(53.5126°N, 14.3055°E)
Time: 18:20:50
(UTC+00:00)

Spot 4 Rocket - Pass Details

Date: 08 August 2020
Orbit: 776 x 781 km, 98.7° (Epoch: 19 September)

Event Time Altitude Azimuth Distance (km) Brightness Sun altitude
Rises 02:35:19 0° 15° (NNE) 3,283 8.3 -7.6°
Reaches altitude 10° 02:37:39 10° 15° (NNE) 2,351 7.5 -7.3°
Maximum altitude 02:42:51 83° 288° (WNW) 795 4.1 -6.7°
Drops below altitude 10° 02:48:00 10° 201° (SSW) 2,333 6.0 -6.1°
Enters shadow 02:49:45 - 201° (SSW) 3,038 6.6 -5.9°
